CAPE
0 0 0 0 0 0 0 0 0 0 0 0 0 0 0 0 0 23 77 620 1018 1030 1284 863 650 938 743 809 958 700 974 772 749 975 696 755 707 522 673 644 888 577 492 228
0 0 0 0 0 0 0 0 0 0 0 0 0 0 0 0 0 0 77 242 908 909 1382 1185 826 563 918 1042 931 852 1141 1010 815 1033 997 758 814 875 790 328 1000 786 542 924
0 0 0 0 0 0 0 0 0 0 0 0 0 0 0 0 0 0 1 136 461 890 1430 1396 1092 769 1184 1225 1129 1117 1324 1300 1507 1298 1133 875 850 966 683 558 537 932 635 530
0 0 0 0 0 0 0 0 0 0 0 0 0 0 0 0 0 0 0 13 124 608 1150 1552 1354 1009 740 1462 1375 1297 1247 1517 1450 1381 1177 1010 821 739 689 694 774 712 843 1048
0 0 0 0 0 0 0 0 0 0 0 0 0 0 0 0 0 0 0 0 3 453 784 1623 1586 1233 1032 1372 1597 2056 2218 1986 1634 1373 1160 1260 760 1014 1036 1076 666 652 872 976
0 0 0 0 0 0 0 0 0 0 0 0 0 0 0 0 0 0 0 0 0 205 707 1771 1786 1513 1357 1115 1138 1637 2202 2158 1808 2143 1542 1333 764 788 1079 918 1062 736 911 1006
0 0 0 0 0 0 0 0 0 0 0 0 0 0 4 1 0 0 0 0 0 49 516 1504 1853 1695 1531 1365 1355 1509 2314 2335 2185 2037 2179 1634 1092 843 1051 834 865 663 815 860
0 6 0 0 0 0 0 0 0 0 0 0 0 0 9 0 0 0 0 0 0 0 233 803 1822 1760 1697 1675 1610 1690 2216 2576 2555 2446 2169 2151 1922 1497 1114 1241 764 960 1124 1103
0 7 0 0 0 0 0 0 0 0 0 0 0 10 1 0 0 0 1 1 0 0 257 767 1486 1825 1883 1904 1838 1917 2179 2607 2640 2475 2522 2510 2222 2298 1813 1349 970 682 953 1198
0 0 12 1 0 0 0 0 0 0 0 0 1 92 6 0 1 0 0 23 0 3 357 761 983 1327 2086 2028 2105 2077 2360 2610 2775 2592 2627 2614 2679 2487 2006 1901 1389 844 1147 954
0 0 0 26 0 0 0 0 0 0 0 0 0 12 19 0 0 0 10 67 4 36 367 626 771 1077 1785 2046 2206 2234 2343 2638 2799 2735 2656 2590 2621 2607 2364 2216 1560 1614 1168 1297
0 0 0 6 10 17 36 31 14 31 2 5 22 38 9 0 0 0 10 47 206 88 311 501 766 1097 1403 2039 2158 2419 2457 2486 2772 2788 2668 2630 2679 2462 2420 2073 2205 2030 1349 1294
0 7 1 1 23 7 5 8 43 26 22 21 12 29 0 0 0 18 22 61 185 345 317 322 603 1011 1292 1893 2060 2342 2569 2607 2864 2842 2654 2869 2780 2607 2397 2333 2149 2162 1608 1116
0 0 0 0 0 0 4 3 2 14 43 57 51 20 3 0 0 0 21 195 192 329 410 381 386 812 1247 1617 1997 2273 2731 2716 2805 3021 3027 2954 2712 2818 2629 2644 2323 2563 2100 1272
0 0 0 0 0 0 0 0 2 15 72 32 1 1 0 36 6 6 9 26 348 522 520 567 1118 1326 1413 2166 2556 2625 3147 2864 2920 3231 3238 3082 3074 3009 2958 2906 2686 2250 2718 2534
0 0 0 0 0 0 0 0 0 2 10 3 1 1 131 472 700 10 2 47 771 1781 2284 2222 1441 1628 2233 2456 3130 3084 2809 3407 3223 3123 3295 3410 3410 3205 3216 3018 3256 2840 2643 2438
0 0 0 0 0 0 0 0 7 2 1 27 66 23 329 215 459 536 104 100 689 2698 3127 3194 3368 3418 3283 2359 2805 3057 3200 3019 3287 3824 3620 3516 3606 3451 3399 3357 3285 3340 3059 3029
0 0 0 0 0 0 0 28 48 24 261 290 258 228 40 0 67 155 35 0 0 1504 1735 1980 2707 3102 3050 2619 2690 3154 3338 3326 3699 3390 3922 3870 3874 3685 3494 3473 3356 3365 3381 3141
0 0 0 0 0 0 74 42 33 51 126 239 201 285 76 40 274 70 6 57 206 202 461 979 830 2277 3027 3021 3020 3138 3325 3574 3574 3488 3774 3814 3900 3813 3659 3540 3489 3523 3500 3415
0 0 0 1 23 30 113 15 0 32 144 81 67 227 46 9 42 38 0 6 273 284 307 203 562 943 1767 2555 2974 3081 2965 3000 3050 3191 3375 3337 3440 3672 3841 3629 3628 3522 3522 3219
0 0 0 0 0 85 0 0 32 7 72 2 3 43 147 38 9 5 63 15 5 6 122 164 129 598 1260 1604 2875 3212 3157 2612 2970 3124 3235 3307 3256 3242 3322 3435 3505 3550 3252 2700
0 0 0 0 2 35 2 0 0 62 113 1 0 19 62 7 0 0 8 31 11 0 46 243 202 98 756 1126 1710 2014 2301 2934 3465 3470 2910 2927 2722 2673 2789 2689 2801 2836 2564 2416
0 0 0 0 0 14 5 30 85 82 86 71 30 5 7 4 1 0 0 0 52 4 3 64 205 134 417 577 919 1658 2393 1954 1815 2577 2452 2245 2045 2288 2712 2406 2162 1760 1371 1410
1 0 0 0 0 0 0 4 0 0 0 0 0 7 11 0 0 0 1 0 10 14 1 1 100 188 153 308 343 848 1262 1752 2314 2311 1845 1732 2072 1591 1047 1720 1165 725 252 46
0 0 0 0 2 0 0 0 1 1 0 1 5 10 0 1 0 0 0 62 15 19 15 6 26 212 376 248 81 113 387 680 1652 1788 1775 1635 1776 1501 1268 1477 1453 1474 857 97
0 0 3 12 10 8 0 0 0 0 12 2 9 4 13 25 6 29 9 19 31 49 53 8 0 1 158 315 159 473 91 10 455 1151 1066 943 660 1246 1665 1764 1548 952 649 432
CIN
-0 -0 -0 -0 -0 -0 -0 -0 -0 -0 -0 -0 -0 -0 -0 -0 -0 -90 -38 -5 -8 -11 -17 -75 -48 -16 -25 -46 -30 -25 -9 -25 -29 -18 -16 -12 -6 -13 -6 -11 -5 -17 -7 -20
-0 -0 -0 -0 -0 -0 -0 -0 -0 -0 -0 -0 -0 -0 -0 -0 -0 -0 -45 -19 -5 -7 -18 -74 -67 -28 -23 -21 -34 -29 -7 -19 -34 -19 -15 -18 -4 -10 -6 -9 -8 -13 -9 -4
-0 -0 -0 -0 -0 -0 -0 -0 -0 -0 -0 -0 -0 -0 -0 -0 -0 -0 -3 -38 -6 -5 -22 -56 -76 -62 -12 -52 -51 -38 -26 -9 -4 -9 -12 -8 -6 -3 -7 -8 -10 -6 -11 -9
-0 -0 -0 -0 -0 -0 -0 -0 -0 -0 -0 -0 -0 -0 -0 -0 -0 -0 -0 -31 -24 -5 -6 -45 -93 -75 -43 -41 -57 -48 -34 -13 -11 -5 -8 -15 -25 -11 -9 -9 -6 -14 -6 -2
-0 -0 -0 -0 -0 -0 -0 -0 -0 -0 -0 -0 -0 -0 -0 -0 -0 -0 -0 -0 -39 -7 -11 -34 -77 -76 -42 -10 -33 -9 -12 -16 -13 -21 -14 -7 -13 -4 -5 -4 -15 -11 -9 -11
-0 -0 -0 -0 -0 -0 -0 -0 -0 -0 -0 -0 -0 -0 -0 -0 -0 -0 -0 -0 -0 -5 -8 -28 -47 -66 -31 -34 -27 -9 -21 -14 -17 -3 -11 -26 -44 -22 -2 -9 -4 -12 -6 -15
-0 -0 -0 -0 -0 -0 -0 -0 -0 -0 -0 -0 -0 -0 -5 -15 -0 -0 -0 -0 -0 -22 -7 -15 -34 -36 -32 -28 -52 -52 -22 -19 -14 -10 -5 -21 -47 -35 -14 -15 -14 -25 -11 -9
-0 -10 -0 -0 -0 -0 -0 -0 -0 -0 -0 -0 -0 -12 -5 -0 -0 -0 -0 -0 -0 -0 -6 -14 -16 -27 -33 -28 -47 -57 -63 -39 -18 -7 -11 -7 -12 -23 -23 -23 -29 -16 -13 -11
-0 -28 -0 -0 -0 -0 -0 -0 -0 -0 -0 -0 -0 -7 -4 -0 -0 -0 -3 -7 -0 -0 -13 -30 -13 -20 -36 -32 -58 -68 -84 -83 -62 -45 -11 -3 -5 -0 -1 -23 -37 -45 -18 -3
-0 -0 -7 -8 -0 -0 -0 -0 -0 -0 -0 -0 -2 -16 -53 -0 -3 -0 -0 -58 -0 -25 -20 -36 -34 -30 -42 -45 -48 -60 -81 -107 -87 -62 -35 -15 -1 -2 -6 -2 -22 -43 -14 -10
-0 -0 -0 -5 -0 -0 -0 -0 -0 -0 -0 -0 -18 -17 -47 -0 -0 -0 -4 -31 -47 -54 -20 -32 -30 -29 -42 -49 -53 -67 -76 -111 -105 -90 -62 -44 -23 -5 -3 -1 -26 -17 -12 -13
-1 -0 -0 -4 -21 -22 -17 -7 -14 -11 -12 -29 -20 -7 -34 -0 -3 -1 -17 -42 -19 -12 -18 -30 -27 -42 -41 -56 -49 -80 -89 -107 -123 -103 -76 -64 -31 -27 -22 -15 -1 -21 -28 -14
-0 -36 -4 -1 -14 -30 -14 -7 -13 -4 -4 -14 -15 -30 -0 -0 -0 -95 -53 -8 -29 -20 -8 -12 -28 -42 -46 -44 -48 -49 -79 -86 -106 -106 -100 -56 -46 -41 -39 -41 -19 -22 -40 -55
-0 -0 -0 -0 -0 -0 -3 -9 -18 -39 -6 -12 -8 -17 -6 -0 -0 -0 -86 -1 -16 -32 -17 -8 -6 -14 -32 -33 -58 -36 -49 -67 -69 -86 -88 -70 -83 -60 -57 -33 -45 -10 -51 -80
-0 -0 -0 -0 -0 -0 -0 -0 -2 -9 -15 -17 -9 -9 -0 -45 -32 -22 -39 -66 -3 -19 -40 -35 -22 -13 -20 -17 -28 -34 -13 -37 -55 -41 -71 -90 -64 -47 -35 -25 -46 -41 -2 -19
-0 -0 -0 -0 -0 -0 -0 -0 -0 -16 -14 -17 -4 -1 -31 -99 -71 -2 -76 -112 -107 -14 -42 -70 -58 -27 -33 -33 -31 -46 -47 -9 -22 -43 -57 -62 -54 -43 -26 -20 -8 -34 -23 -20
-0 -0 -0 -0 -0 -0 -0 -0 -4 -14 -11 -23 -13 -58 -133 -212 -254 -279 -408 -122 -45 -1 -2 -11 -3 -35 -57 -94 -71 -70 -67 -48 -35 -16 -31 -53 -60 -53 -33 -12 -4 -4 -17 -8
-0 -0 -0 -0 -0 -0 -0 -19 -40 -16 -37 -33 -30 -42 -114 -0 -270 -361 -401 -0 -0 -11 -7 -10 -6 -22 -44 -52 -56 -65 -62 -55 -26 -41 -20 -21 -29 -40 -36 -24 -12 -6 -5 -10
-0 -0 -0 -0 -0 -0 -7 -133 -121 -126 -47 -29 -39 -37 -102 -158 -102 -214 -76 -261 -32 -99 -38 -3 -47 -2 -1 -16 -21 -21 -31 -39 -25 -32 -23 -20 -14 -15 -16 -14 -12 -2 -2 -1
-0 -0 -0 -3 -3 -3 -86 -145 -8 -98 -11 -107 -54 -2 -75 -124 -58 -105 -0 -5 -33 -110 -105 -71 -16 -6 -28 -4 -8 -6 -7 -15 -32 -35 -29 -31 -23 -4 -1 -3 -2 -4 -3 -2
-0 -0 -0 -0 -1 -71 -16 -0 -56 -42 -40 -78 -24 -53 -28 -61 -61 -57 -86 -134 -188 -238 -204 -43 -101 -26 -17 -38 -1 -6 -4 -9 -6 -7 -13 -9 -7 -7 -6 -6 -4 -3 -5 -14
-0 -0 -0 -0 -2 -14 -8 -0 -2 -5 -43 -9 -0 -102 -19 -74 -1 -0 -18 -127 -96 -15 -87 -42 -66 -138 -16 -30 -17 -18 -27 -31 -12 -2 -4 -4 -11 -11 -8 -11 -7 -4 -10 -14
-0 -0 -0 -0 -0 -25 -38 -14 -58 -24 -30 -24 -37 -19 -96 -11 -2 -0 -0 -0 -38 -69 -14 -65 -32 -50 -31 -33 -31 -14 -2 -51 -76 -49 -49 -51 -42 -31 -8 -19 -24 -20 -83 -85
-2 -0 -0 -0 -0 -0 -0 -32 -0 -0 -0 -16 -0 -13 -14 -0 -0 -0 -0 -0 -1 -1 -8 -12 -36 -25 -41 -36 -68 -21 -24 -24 -25 -35 -51 -63 -63 -92 -107 -47 -89 -199 -310 -389
-0 -0 -0 -0 -2 -0 -0 -0 -2 -1 -1 -1 -25 -30 -0 -0 -0 -1 -0 -37 -1 -3 -2 -39 -80 -25 -18 -64 -88 -71 -43 -52 -17 -22 -26 -21 -27 -75 -108 -83 -52 -34 -157 -398
-0 -5 -0 -0 -1 -0 -0 -0 -0 -0 -1 -1 -2 -3 -2 -1 -5 -1 -5 -9 -13 -17 -18 -4 -3 -25 -41 -23 -38 -6 -59 -74 -24 -14 -9 -20 -17 -9 -15 -23 -34 -100 -173 -255
Wind_Speed
10 8 9 11 13 19 27 27 27 19 7 17 18 17 13 13 12 12 13 15 17 17 17 17 20 21 22 24 22 24 18 15 8 3 3 7 20 12 14 4 7 2 13 17
8 11 13 17 21 22 27 27 26 27 2 17 15 22 19 14 14 15 14 15 17 17 19 19 19 20 20 19 22 23 17 14 14 13 12 8 8 12 11 6 7 4 12 18
7 16 7 20 21 26 15 25 28 30 30 27 20 19 17 18 17 13 15 15 17 17 19 19 19 20 20 20 19 21 18 16 15 11 10 6 4 14 16 3 3 4 5 17
4 8 16 2 27 29 31 29 29 28 29 26 28 30 21 13 12 11 14 17 16 17 17 20 20 20 20 20 19 19 18 16 15 16 13 4 4 3 2 1 1 2 3 4
14 8 11 26 28 25 32 28 29 29 30 31 27 14 23 8 8 9 10 15 17 17 17 18 19 19 20 19 20 19 17 15 14 18 20 13 7 25 2 4 8 4 3 3
11 15 14 20 22 20 26 31 28 30 20 24 15 5 26 3 8 10 11 12 14 16 16 19 19 18 20 19 18 16 17 16 17 16 18 14 23 22 10 13 2 6 2 6
1 2 2 3 17 28 19 18 17 6 2 14 9 10 9 9 7 9 7 7 9 13 15 17 17 17 19 20 18 17 17 18 18 19 17 14 15 18 9 7 4 2 4 5
24 26 5 5 6 18 6 13 8 29 27 25 11 18 14 14 13 12 10 8 6 11 14 16 17 17 18 19 18 16 17 18 19 19 20 17 15 10 9 5 5 5 7 6
25 18 12 16 16 8 5 10 15 31 31 31 30 10 20 6 10 10 17 16 5 8 12 14 15 15 17 17 18 17 15 16 17 20 19 17 17 17 11 8 9 15 17 12
25 24 20 10 12 7 7 27 19 5 19 22 23 18 17 14 13 15 18 11 5 5 9 12 14 15 16 17 17 16 14 15 16 18 18 17 15 16 19 7 9 9 15 18
25 27 28 10 10 14 5 8 6 25 30 31 25 16 15 23 22 18 17 12 2 4 7 9 12 14 15 16 17 16 15 14 14 16 16 15 14 14 14 14 11 8 13 8
25 27 30 30 29 19 30 29 27 19 20 23 32 31 16 14 21 14 16 9 12 6 7 8 11 12 13 15 16 15 14 14 15 14 14 14 13 13 12 13 10 8 11 10
24 22 26 27 26 27 26 27 27 32 36 36 29 30 10 24 31 31 30 3 9 7 6 8 9 11 11 13 14 12 13 13 14 14 13 11 11 11 13 12 13 7 8 10
23 25 29 33 38 37 30 28 34 34 35 34 36 37 21 8 21 13 24 10 4 9 7 6 7 9 10 9 11 9 9 10 12 13 14 13 13 12 12 9 11 7 7 9
19 21 26 33 38 40 41 39 34 35 39 41 43 43 41 41 34 20 24 25 27 8 9 11 10 9 8 4 4 5 3 8 11 12 16 16 15 13 11 10 9 9 5 4
29 30 34 38 37 40 44 40 41 41 39 42 45 48 39 32 34 29 20 25 34 3 9 9 10 9 6 8 8 7 7 9 6 7 11 10 10 12 12 11 8 8 6 5
27 30 33 38 37 40 41 39 42 44 41 41 40 37 35 35 33 31 29 28 25 13 12 11 13 12 16 13 11 11 10 15 15 12 8 6 6 8 9 10 10 6 6 4
23 26 28 34 35 37 37 32 33 35 27 29 27 25 29 32 30 29 33 35 46 10 10 13 14 14 15 17 11 11 10 11 17 18 13 10 8 7 6 7 9 9 6 5
23 24 27 31 34 37 32 35 35 34 35 28 30 30 32 34 28 30 32 28 41 24 22 19 17 16 14 14 15 14 12 12 15 18 17 15 15 11 9 8 7 6 5 4
21 18 21 25 31 36 27 34 38 38 30 32 36 30 32 34 35 29 25 23 27 29 29 27 23 18 17 17 14 16 15 16 18 19 18 17 16 16 15 13 11 11 10 6
21 23 18 15 20 20 23 33 31 33 37 37 37 39 35 34 32 31 30 32 31 29 28 30 28 24 21 20 18 16 15 18 19 19 17 17 18 19 20 18 17 15 13 13
19 22 22 22 25 23 21 26 27 28 25 31 33 33 36 36 37 34 33 31 32 33 33 29 31 30 25 23 21 19 18 19 20 21 20 21 21 20 21 22 22 21 17 16
16 24 20 19 19 24 30 29 31 35 36 38 40 41 41 42 42 41 39 38 32 30 34 31 32 31 27 26 25 26 23 23 23 20 19 19 20 19 20 21 20 18 21 22
18 27 19 26 21 33 35 31 38 41 42 43 43 44 44 46 45 45 43 42 40 36 34 33 31 33 35 31 29 29 30 28 28 26 24 24 23 23 24 23 24 27 26 26
23 24 25 22 21 42 33 35 41 44 45 44 44 46 47 48 48 48 46 45 42 41 37 35 35 34 33 30 32 34 31 33 34 32 29 28 25 24 24 23 25 25 25 22
22 25 26 25 23 23 15 34 38 31 37 42 44 45 45 44 46 45 45 46 46 43 41 40 39 38 35 33 32 30 31 35 32 35 36 32 31 27 25 25 22 24 24 23
Wind_Direction
147 142 157 169 183 216 266 292 268 251 195 346 242 235 216 214 162 138 154 138 137 137 130 129 151 144 144 150 153 162 151 146 151 164 156 288 261 284 282 316 304 301 282 274
158 178 186 204 225 236 284 272 257 284 149 322 226 249 235 212 187 171 147 157 148 143 135 133 140 148 147 147 155 160 155 149 150 149 148 152 285 283 291 301 294 298 284 274
168 189 330 316 241 240 290 245 265 282 291 264 240 233 230 236 173 167 152 153 155 149 141 140 142 156 151 152 154 157 157 157 156 150 149 156 279 277 278 294 295 311 301 274
197 330 222 268 295 271 266 267 266 302 298 256 280 279 243 184 116 125 147 160 152 150 141 144 144 154 155 152 154 157 158 160 163 164 159 173 193 227 215 258 251 141 139 279
329 329 336 298 292 300 274 295 291 291 294 278 253 318 251 56 49 93 111 161 157 151 146 143 145 149 153 144 151 151 152 154 160 167 169 161 260 184 181 294 159 179 183 185
237 320 327 316 309 313 295 273 289 276 228 240 216 150 287 13 45 39 86 97 150 148 145 145 145 143 153 146 142 142 152 155 158 161 165 162 176 179 162 166 184 169 227 277
291 263 308 315 315 281 312 308 319 347 86 308 17 8 335 21 19 16 45 76 104 143 140 141 140 140 146 148 143 142 146 155 157 162 162 164 166 172 169 167 297 147 184 276
320 328 69 53 360 277 341 324 330 266 283 308 283 336 346 311 330 358 354 11 105 128 137 140 141 141 143 147 146 143 142 148 156 161 166 164 164 164 168 278 206 173 176 189
274 347 13 335 326 5 20 178 225 265 271 274 268 215 321 357 347 339 336 334 75 113 124 132 137 138 142 145 148 148 143 144 148 158 160 160 165 167 160 159 171 179 183 173
262 276 297 54 8 41 26 257 228 308 312 304 294 335 325 351 5 337 331 350 31 96 118 128 135 137 139 145 147 146 143 148 146 151 154 156 158 164 175 137 154 166 174 180
291 279 251 359 12 330 32 17 2 265 272 273 305 320 324 315 317 328 329 333 56 113 126 127 133 138 142 144 146 149 148 146 149 155 153 152 151 154 161 166 156 157 170 163
285 287 269 257 264 299 272 288 289 308 310 298 276 278 337 338 331 353 328 330 332 138 147 141 140 141 147 152 155 155 154 154 156 156 157 157 151 152 150 161 154 145 163 167
307 307 309 303 281 311 303 305 300 287 274 277 291 287 322 309 295 309 307 325 303 303 172 166 159 155 155 156 161 164 163 162 158 157 162 159 157 156 159 154 161 149 151 166
315 307 301 294 282 292 305 306 287 293 292 289 280 278 297 76 346 315 289 319 320 269 270 201 188 175 171 170 168 173 176 171 167 164 164 167 168 166 166 157 156 143 148 157
333 312 311 304 297 291 292 292 296 292 286 288 285 283 280 288 307 305 305 302 291 271 268 269 288 276 188 224 213 217 238 179 172 170 172 174 172 171 168 165 162 163 148 145
317 312 310 303 304 299 292 293 290 290 290 287 286 282 296 308 314 291 287 281 275 296 305 294 283 302 297 285 286 283 269 287 240 203 183 178 176 176 177 175 166 166 166 169
320 316 312 306 308 303 297 297 294 292 294 292 290 295 306 296 299 310 321 310 273 264 294 316 300 302 296 293 286 282 288 277 276 276 249 230 208 190 185 179 178 179 175 171
326 322 318 313 312 302 306 316 312 301 308 303 300 321 315 295 298 312 312 302 308 53 340 329 321 316 304 301 286 287 286 284 280 274 276 273 266 253 233 202 190 183 181 192
339 334 329 324 316 311 318 325 317 308 302 310 302 306 304 305 308 305 315 292 309 317 320 328 334 330 333 313 304 296 295 291 286 280 279 280 283 277 262 255 251 242 232 230
347 355 341 336 329 321 327 315 308 305 296 316 304 309 302 301 293 306 316 314 309 307 312 311 319 326 326 324 322 302 300 296 290 286 282 283 285 284 277 275 274 274 276 274
355 349 351 352 346 355 1 326 321 298 296 301 294 298 301 301 301 302 302 303 314 315 298 304 305 309 313 310 314 318 315 300 296 292 294 289 286 286 284 281 279 279 278 281
3 355 355 355 348 347 1 353 337 324 322 309 305 308 306 299 300 306 308 307 304 300 301 301 296 301 304 303 300 305 306 304 302 301 298 293 291 290 288 285 284 287 287 289
18 0 358 358 351 355 347 341 337 314 312 305 302 302 306 299 298 298 300 301 299 302 295 296 291 290 296 299 299 294 293 296 297 300 299 299 297 300 297 294 291 289 299 296
2 359 0 350 350 336 332 334 324 312 295 295 295 297 299 296 296 296 295 293 295 298 296 294 290 285 285 289 291 291 287 287 287 289 290 291 291 291 289 291 292 294 298 296
347 352 356 351 348 303 332 331 321 303 297 288 287 289 290 292 289 289 290 292 292 291 293 293 290 288 289 289 291 285 286 283 280 282 284 287 287 286 289 290 294 295 297 298
353 350 356 354 353 349 327 336 330 317 284 296 291 289 288 293 285 284 285 286 288 292 290 288 287 289 290 289 291 291 287 278 282 279 280 282 284 284 282 287 293 297 296 298